Regional Weather Roundup
Issued by NWS

Home | Current Version | Previous Version | Graphics & Text | Print | Product List | Glossary On
Versions: 1 2 3 4 5 6 7 8 9 10 11 12 13 14 15 16 17 18 19 20 21 22 23 24 25 26 27 28 29 30 31 32 33 34 35 36 37 38 39 40 41 42 43 44 45 46 47 48 49 50
000
ASUS45 KPSR 230110
RWRAZ

ARIZONA REGIONAL HOURLY WEATHER ROUNDUP
NATIONAL WEATHER SERVICE PHOENIX AZ
600 PM MST FRI AUG 22 2014

NOTE: FAIR INDICATES FEW OR NO CLOUDS BELOW 12,000 FEET WITH NO
SIGNIFICANT WEATHER AND/OR OBSTRUCTIONS TO VISIBILITY.

AZZ001>003-036-230200-
NORTHWEST ARIZONA

CITY           SKY/WX    TMP DP  RH WIND       PRES   REMARKS
BULLHEAD CITY  SUNNY     93  52  24 S13       29.80F
KINGMAN        SUNNY     82  49  31 SW18      29.98F
$$

AZZ004>008-015-016-018-230200-
NORTH CENTRAL ARIZONA

CITY           SKY/WX    TMP DP  RH WIND       PRES   REMARKS
GRAND CANYON   SUNNY     70  46  42 S10       30.16F
WILLIAMS       SUNNY     64  50  59 S10       30.26F
PRESCOTT       MOSUNNY   73  51  46 S13       30.11S
FLAGSTAFF      MOSUNNY   63  47  55 SW14      30.22F
PAYSON         MOSUNNY   73  50  43 SW7       30.14S
PAGE           SUNNY     81  47  30 S7        29.96F
$$

AZZ009>014-017-230200-
NORTHEAST ARIZONA

CITY           SKY/WX    TMP DP  RH WIND       PRES   REMARKS
WINSLOW        SUNNY     78  44  29 SW18      30.08S
SAINT JOHNS    PTSUNNY   72  49  44 SW16      30.13S
WINDOW ROCK    MOSUNNY   70  44  39 SW9       30.18
SHOW LOW       MOSUNNY   64  48  55 SW13      30.22S
$$

AZZ023-230200-
GREATER PHOENIX AREA

CITY           SKY/WX    TMP DP  RH WIND       PRES   REMARKS
PHOENIX        FAIR      91  59  33 W10       29.86F
BUCKEYE          N/A     90  57  33 S6        29.87S
GLENDALE       MOSUNNY   91  57  31 S7        29.88F
LUKE AFB       NOT AVBL
DEER VALLEY    SUNNY     88  55  32 VRB6      29.88F
SCOTTSDALE     SUNNY     89  56  32 W9        29.90F
MESA-FALCON    MOSUNNY   90  57  33 W9        29.88S
MESA-GATEWAY   MOSUNNY   91  55  29 NW7       29.90
CHANDLER       MOSUNNY   91  57  31 W8        29.87F
$$

AZZ027-028-230200-
SOUTHWEST MARICOPA COUNTY AND PINAL COUNTY

CITY           SKY/WX    TMP DP  RH WIND       PRES   REMARKS
CASA GRANDE    SUNNY     90  57  33 NW10      29.90S
GILA BEND      CLEAR     91  54  27 W9        29.82R
$$

AZZ503-504-507>509-230200-
SOUTHEAST ARIZONA

CITY           SKY/WX    TMP DP  RH WIND       PRES   REMARKS
TUCSON         MOSUNNY   88  56  33 SW5       29.97F
DAVIS-MONTHAN  MOSUNNY   87  57  36 W9        29.96S
RYAN FIELD       N/A     90  57  33 SW9       29.95F
NOGALES        SUNNY     80  59  48 SW9       30.07S
SIERRA VISTA   MOSUNNY   73  64  73 S9        30.12F
DOUGLAS        PTSUNNY   71  64  78 CALM      30.09F
SAFFORD        MOSUNNY   86  53  32 NW6       29.96F
$$

AZZ020-021-025-026-031-230200-
SOUTHWEST ARIZONA

CITY           SKY/WX    TMP DP  RH WIND       PRES   REMARKS
YUMA           MOSUNNY   95  55  26 S10       29.80F
$$

CAZ031-033-041-043-047-048-061-230200-
SOUTHERN CALIFORNIA

CITY           SKY/WX    TMP DP  RH WIND       PRES   REMARKS
DOWNTOWN L.A.  SUNNY     76  64  66 SW6       29.91R
L.A. AIRPORT   MOSUNNY   72  63  73 W14       29.93S
SAN DIEGO      MOSUNNY   76  63  64 NW9       29.94F
BURBANK        SUNNY     83  45  26 S12       29.91S
ONTARIO        MOSUNNY   87  45  23 SW12      29.91S
RIVERSIDE      SUNNY     86  60  41 W10G20    29.90S
PALM SPRINGS   SUNNY     96  57  27 SE8       29.81S
EL CENTRO NAS  MOSUNNY   94  59  31 SE10      29.78F
IMPERIAL       SUNNY     94  61  33 SE9       29.78F
BLYTHE         SUNNY     91  63  39 SE8       29.81F
NEEDLES        SUNNY     94  51  23 VRB3      29.81F
$$

NVZ020-UTZ003-230200-
SOUTHERN NEVADA-UTAH

CITY           SKY/WX    TMP DP  RH WIND       PRES   REMARKS
LAS VEGAS      FAIR      93  46  19 S22G28    29.77F
SALT LAKE CITY RAIN      61  56  83 N15       30.00R
$$

NMZ009-TXZ055-230200-
NEW MEXICO-WEST TEXAS

CITY           SKY/WX    TMP DP  RH WIND       PRES   REMARKS
ALBUQUERQUE    LGT RAIN  68  55  63 W28       30.19R
EL PASO        MOCLDY    76  61  59 SE6       30.04F
$$


........................KEY........................
SKY/WX - SKY CONDITION/WEATHER
TMP    - TEMPERATURE IN FAHRENHEIT
DP     - DEW POINT IN FAHRENHEIT
RH     - RELATIVE HUMIDITY IN PERCENT
WIND   - DIRECTION AND SPEED IN MILES PER HOUR (MPH)
VRB    - VARIABLE WIND DIRECTION
PRES   - MEAN SEA LEVEL PRESSURE IN INCHES OF MERCURY
         F - FALLING PRESSURE   R - RISING PRESSURE
         S - STEADY PRESSURE
VSB    - VISIBILITY IN MILES
HX     - HEAT INDEX IN FAHRENHEIT
WCI    - WIND CHILL INDEX IN FAHRENHEIT
TC     - TEMPERATURE IN CELSIUS WHICH IS ALSO KNOWN AS
         TEMPERATURE IN CENTIGRADE
AFB    - AIR FORCE BASE
         LUKE AFB IS LUKE AIR FORCE BASE
         DAVIS-MONTHAN IS DAVIS-MONTHAN AIR FORCE BASE
NAS    - NAVAL AIR STATION
         EL CENTRO NAS IS EL CENTRO NAVAL AIR STATION
N/A    - NOT AVAILABLE



USA.gov is the U.S. government's official web portal to all federal, state and local government web resources and services.